Location: Newark
(45.9456°N, 15.4064°E)
Time: 02:15:04
(UTC+00:00)

SR - Pass Details

Date: 31 January 2020
Orbit: 575 x 881 km, 66.7° (Epoch: 19 February)

Event Time Altitude Azimuth Distance (km) Brightness Sun altitude
Rises 02:49:49 0° 330° (NNW) 3,430 - -37.0°
Reaches altitude 10° 02:52:54 10° 345° (NNW) 2,453 - -36.5°
Exits shadow 02:56:50 23° 29° (NNE) 1,671 ? -35.8°
Maximum altitude 02:57:20 23° 37° (NE) 1,652 ? -35.7°
Drops below altitude 10° 03:01:31 10° 89° (E) 2,297 ? -35.0°
Sets 03:04:17 0° 104° (ESE) 3,161 ? -34.5°
